Location: Gebenbach
(49.5378°N, 11.8735°E)
Time: 05:19:53
(UTC+00:00)

NOSS 3-3 (C) - Pass Details

Date: 29 October 2020
Orbit: 825 x 1387 km, 63.4° (Epoch: 22 November)

Event Time Altitude Azimuth Distance (km) Brightness Sun altitude
Rises 18:04:35 0° 218° (SW) 3,425 7.3 -21.5°
Reaches altitude 10° 18:06:56 10° 218° (SW) 2,535 6.6 -21.9°
Maximum altitude 18:12:49 85° 130° (SE) 964 3.8 -22.8°
Enters shadow 18:16:14 30° 44° (NE) 1,708 4.9 -23.4°
